Time,TemperatureF,DewpointF,PressureIn,WindDirection,WindDirectionDegrees,WindSpeedMPH,WindSpeedGustMPH,Humidity,HourlyPrecipIn,Conditions,Clouds,dailyrainin,SoftwareType,DateUTC
2012-06-26 06:18:00,61.5,29.0,29.57,WSW,248,4.0,8.0,29,0.00,,---,0.00,VWS V14.01,2012-06-26 12:18:00,
2012-06-26 06:23:00,61.4,29.7,29.58,WSW,240,0.0,2.0,30,0.00,,---,0.00,VWS V14.01,2012-06-26 12:23:00,
2012-06-26 06:28:00,61.3,29.6,29.57,WSW,240,0.0,1.0,30,0.00,,---,0.00,VWS V14.01,2012-06-26 12:28:00,
2012-06-26 06:33:00,61.6,30.7,29.58,WSW,240,1.0,5.0,31,0.00,,---,0.00,VWS V14.01,2012-06-26 12:33:00,
2012-06-26 06:38:00,62.1,29.5,29.57,WSW,240,5.0,5.0,29,0.00,,---,0.00,VWS V14.01,2012-06-26 12:38:00,
2012-06-26 06:43:00,63.8,29.2,29.56,WSW,240,0.0,1.0,27,0.00,,---,0.00,VWS V14.01,2012-06-26 12:43:00,
2012-06-26 06:48:00,64.7,30.9,29.55,WSW,240,1.0,1.0,28,0.00,,---,0.00,VWS V14.01,2012-06-26 12:48:00,
2012-06-26 06:53:00,65.3,29.6,29.55,WSW,240,0.0,2.0,26,0.00,,---,0.00,VWS V14.01,2012-06-26 12:53:00,
2012-06-26 06:58:00,65.8,31.8,29.55,WSW,240,0.0,0.0,28,0.00,,---,0.00,VWS V14.01,2012-06-26 12:58:00,
2012-06-26 07:03:00,65.9,31.9,29.54,WSW,240,0.0,0.0,28,0.00,,---,0.00,VWS V14.01,2012-06-26 13:03:00,
2012-06-26 07:08:00,65.9,33.6,29.57,WSW,240,0.0,0.0,30,0.00,,---,0.00,VWS V14.01,2012-06-26 13:08:00,
2012-06-26 07:13:00,66.7,31.7,29.56,WSW,240,0.0,1.0,27,0.00,,---,0.00,VWS V14.01,2012-06-26 13:13:00,
2012-06-26 07:18:00,67.7,32.5,29.56,WSW,240,0.0,1.0,27,0.00,,---,0.00,VWS V14.01,2012-06-26 13:18:00,
2012-06-26 07:23:00,68.6,33.3,29.54,WSW,240,0.0,1.0,27,0.00,,---,0.00,VWS V14.01,2012-06-26 13:23:00,
2012-06-26 07:28:00,69.4,33.1,29.54,WSW,240,0.0,0.0,26,0.00,,---,0.00,VWS V14.01,2012-06-26 13:28:00,
2012-06-26 07:33:00,70.1,33.7,29.53,WSW,240,0.0,0.0,26,0.00,,---,0.00,VWS V14.01,2012-06-26 13:33:00,
2012-06-26 07:38:00,71.0,37.2,29.52,WSW,240,1.0,2.0,29,0.00,,---,0.00,VWS V14.01,2012-06-26 13:38:00,
2012-06-26 07:43:00,70.0,37.2,29.53,WSW,240,1.0,2.0,30,0.00,,---,0.00,VWS V14.01,2012-06-26 13:43:00,
2012-06-26 07:48:00,69.6,35.1,29.54,WSW,240,1.0,1.0,28,0.00,,---,0.00,VWS V14.01,2012-06-26 13:48:00,
2012-06-26 07:53:00,70.9,33.4,29.52,WSW,240,1.0,2.0,25,0.00,,---,0.00,VWS V14.01,2012-06-26 13:53:00,
2012-06-26 07:58:00,72.4,33.6,29.52,WSW,240,4.0,7.0,24,0.00,,---,0.00,VWS V14.01,2012-06-26 13:58:00,
2012-06-26 08:03:00,73.4,34.5,29.51,WSW,240,5.0,5.0,24,0.00,,---,0.00,VWS V14.01,2012-06-26 14:03:00,
2012-06-26 08:08:00,74.4,35.3,29.59,WSW,240,0.0,1.0,24,0.00,,---,0.00,VWS V14.01,2012-06-26 14:08:00,
2012-06-26 08:13:00,75.2,36.0,29.57,WSW,240,0.0,0.0,24,0.00,,---,0.00,VWS V14.01,2012-06-26 14:13:00,
2012-06-26 08:18:00,75.8,36.5,29.58,WSW,240,5.0,5.0,24,0.00,,---,0.00,VWS V14.01,2012-06-26 14:18:00,
2012-06-26 08:23:00,76.2,36.8,29.57,WSW,242,3.0,5.0,24,0.00,,---,0.00,VWS V14.01,2012-06-26 14:23:00,
2012-06-26 08:28:00,76.6,38.2,29.56,SW,232,5.0,9.0,25,0.00,,---,0.00,VWS V14.01,2012-06-26 14:28:00,
2012-06-26 08:33:00,77.3,37.7,29.56,SW,232,1.0,1.0,24,0.00,,---,0.00,VWS V14.01,2012-06-26 14:33:00,
2012-06-26 08:38:00,77.9,38.2,29.56,SW,232,1.0,5.0,24,0.00,,---,0.00,VWS V14.01,2012-06-26 14:38:00,
2012-06-26 08:43:00,77.8,37.1,29.56,SW,232,4.0,4.0,23,0.00,,---,0.00,VWS V14.01,2012-06-26 14:43:00,
2012-06-26 08:48:00,78.1,38.4,29.56,SW,232,0.0,0.0,24,0.00,,---,0.00,VWS V14.01,2012-06-26 14:48:00,
2012-06-26 08:53:00,78.7,37.8,29.54,SW,232,0.0,5.0,23,0.00,,---,0.00,VWS V14.01,2012-06-26 14:53:00,
2012-06-26 08:58:00,78.8,37.9,29.54,SW,232,3.0,3.0,23,0.00,,---,0.00,VWS V14.01,2012-06-26 14:58:00,
2012-06-26 09:03:00,78.8,39.0,29.54,SW,232,1.0,1.0,24,0.00,,---,0.00,VWS V14.01,2012-06-26 15:03:00,
2012-06-26 09:08:00,79.2,38.2,29.53,SW,232,4.0,10.0,23,0.00,,---,0.00,VWS V14.01,2012-06-26 15:08:00,
2012-06-26 09:13:00,79.0,40.2,29.53,SW,232,8.0,11.0,25,0.00,,---,0.00,VWS V14.01,2012-06-26 15:13:00,
2012-06-26 09:18:00,78.9,40.1,29.53,WSW,238,9.0,9.0,25,0.00,,---,0.00,VWS V14.01,2012-06-26 15:18:00,
2012-06-26 09:23:00,79.0,40.2,29.53,SW,234,8.0,13.0,25,0.00,,---,0.00,VWS V14.01,2012-06-26 15:23:00,
2012-06-26 09:28:00,78.9,41.1,29.52,WSW,238,10.0,11.0,26,0.00,,---,0.00,VWS V14.01,2012-06-26 15:28:00,
2012-06-26 09:33:00,79.1,40.3,29.53,WSW,238,2.0,13.0,25,0.00,,---,0.00,VWS V14.01,2012-06-26 15:33:00,
2012-06-26 09:38:00,79.3,41.5,29.53,WSW,242,7.0,10.0,26,0.00,,---,0.00,VWS V14.01,2012-06-26 15:38:00,
2012-06-26 09:43:00,79.6,40.7,29.52,WSW,244,2.0,8.0,25,0.00,,---,0.00,VWS V14.01,2012-06-26 15:43:00,
2012-06-26 09:48:00,79.7,40.8,29.52,WSW,240,8.0,11.0,25,0.00,,---,0.00,VWS V14.01,2012-06-26 15:48:00,
2012-06-26 09:53:00,79.7,39.8,29.53,WSW,237,4.0,10.0,24,0.00,,---,0.00,VWS V14.01,2012-06-26 15:53:00,
2012-06-26 09:58:00,79.9,41.0,29.53,WSW,237,5.0,7.0,25,0.00,,---,0.00,VWS V14.01,2012-06-26 15:58:00,
2012-06-26 10:03:00,80.1,40.1,29.53,WSW,238,1.0,8.0,24,0.00,,---,0.00,VWS V14.01,2012-06-26 16:03:00,
2012-06-26 10:08:00,80.5,39.3,29.52,WSW,238,5.0,12.0,23,0.00,,---,0.00,VWS V14.01,2012-06-26 16:08:00,
2012-06-26 10:13:00,80.5,40.4,29.52,WSW,238,4.0,9.0,24,0.00,,---,0.00,VWS V14.01,2012-06-26 16:13:00,
2012-06-26 10:18:00,80.7,40.6,29.51,WSW,237,7.0,12.0,24,0.00,,---,0.00,VWS V14.01,2012-06-26 16:18:00,
2012-06-26 10:23:00,80.3,39.2,29.53,WSW,240,5.0,9.0,23,0.00,,---,0.00,VWS V14.01,2012-06-26 16:23:00,
2012-06-26 10:28:00,80.9,41.8,29.51,WSW,240,11.0,11.0,25,0.00,,---,0.00,VWS V14.01,2012-06-26 16:28:00,
2012-06-26 10:33:00,80.5,39.3,29.51,WSW,242,8.0,12.0,23,0.00,,---,0.00,VWS V14.01,2012-06-26 16:33:00,
2012-06-26 10:38:00,80.4,38.1,29.53,WSW,251,2.0,11.0,22,0.00,,---,0.00,VWS V14.01,2012-06-26 16:38:00,
2012-06-26 10:43:00,80.7,39.5,29.51,WSW,244,12.0,14.0,23,0.00,,---,0.00,VWS V14.01,2012-06-26 16:43:00,
2012-06-26 10:48:00,81.0,38.6,29.52,WSW,255,16.0,16.0,22,0.00,,---,0.00,VWS V14.01,2012-06-26 16:48:00,
2012-06-26 10:53:00,81.2,37.6,29.51,WSW,246,12.0,13.0,21,0.00,,---,0.00,VWS V14.01,2012-06-26 16:53:00,
2012-06-26 10:58:00,81.3,38.9,29.51,WSW,249,9.0,21.0,22,0.00,,---,0.00,VWS V14.01,2012-06-26 16:58:00,
2012-06-26 11:03:00,81.5,37.8,29.54,WSW,249,16.0,20.0,21,0.00,,---,0.00,VWS V14.01,2012-06-26 17:03:00,
2012-06-26 11:08:00,81.5,35.3,29.55,West,263,8.0,13.0,19,0.00,,---,0.00,VWS V14.01,2012-06-26 17:08:00,
2012-06-26 11:13:00,81.6,35.4,29.55,WSW,254,10.0,13.0,19,0.00,,---,0.00,VWS V14.01,2012-06-26 17:13:00,
2012-06-26 11:18:00,81.8,35.5,29.54,SW,230,8.0,14.0,19,0.00,,---,0.00,VWS V14.01,2012-06-26 17:18:00,
2012-06-26 11:23:00,81.8,35.5,29.54,WSW,249,8.0,13.0,19,0.00,,---,0.00,VWS V14.01,2012-06-26 17:23:00,
2012-06-26 11:28:00,82.1,35.8,29.54,West,261,5.0,11.0,19,0.00,,---,0.00,VWS V14.01,2012-06-26 17:28:00,
2012-06-26 11:33:00,82.2,37.2,29.54,SW,218,6.0,16.0,20,0.00,,---,0.00,VWS V14.01,2012-06-26 17:33:00,
2012-06-26 11:38:00,81.8,34.2,29.54,SSW,210,5.0,11.0,18,0.00,,---,0.00,VWS V14.01,2012-06-26 17:38:00,
2012-06-26 11:43:00,81.8,36.8,29.53,WSW,256,8.0,19.0,20,0.00,,---,0.00,VWS V14.01,2012-06-26 17:43:00,
2012-06-26 11:49:00,81.9,35.6,29.53,SW,229,7.0,11.0,19,0.00,,---,0.00,VWS V14.01,2012-06-26 17:49:00,
2012-06-26 11:54:00,82.6,37.5,29.52,WSW,243,2.0,10.0,20,0.00,,---,0.00,VWS V14.01,2012-06-26 17:54:00,
2012-06-26 11:59:00,83.1,37.9,29.51,SW,231,6.0,14.0,20,0.00,,---,0.00,VWS V14.01,2012-06-26 17:59:00,
2012-06-26 12:04:00,82.9,35.1,29.53,WSW,252,2.0,7.0,18,0.00,,---,0.00,VWS V14.01,2012-06-26 18:04:00,
2012-06-26 12:09:00,82.9,36.5,29.52,South,186,11.0,12.0,19,0.00,,---,0.00,VWS V14.01,2012-06-26 18:09:00,
2012-06-26 12:14:00,82.5,36.1,29.53,SW,222,10.0,16.0,19,0.00,,---,0.00,VWS V14.01,2012-06-26 18:14:00,
2012-06-26 12:19:00,82.6,36.2,29.52,SW,216,10.0,12.0,19,0.00,,---,0.00,VWS V14.01,2012-06-26 18:19:00,
2012-06-26 12:24:00,82.9,37.8,29.52,SW,222,8.0,15.0,20,0.00,,---,0.00,VWS V14.01,2012-06-26 18:24:00,
2012-06-26 12:29:00,83.7,38.4,29.52,West,261,16.0,18.0,20,0.00,,---,0.00,VWS V14.01,2012-06-26 18:29:00,
2012-06-26 12:34:00,83.6,37.0,29.51,SW,222,10.0,10.0,19,0.00,,---,0.00,VWS V14.01,2012-06-26 18:34:00,
2012-06-26 12:39:00,83.7,38.4,29.51,West,259,7.0,15.0,20,0.00,,---,0.00,VWS V14.01,2012-06-26 18:39:00,
2012-06-26 12:44:00,83.4,36.9,29.51,WSW,257,10.0,18.0,19,0.00,,---,0.00,VWS V14.01,2012-06-26 18:44:00,
2012-06-26 12:49:00,83.8,37.2,29.51,West,267,8.0,12.0,19,0.00,,---,0.00,VWS V14.01,2012-06-26 18:49:00,
2012-06-26 12:54:00,83.8,37.2,29.50,West,271,15.0,15.0,19,0.00,,---,0.00,VWS V14.01,2012-06-26 18:54:00,
2012-06-26 12:59:00,83.8,37.2,29.51,West,260,5.0,13.0,19,0.00,,---,0.00,VWS V14.01,2012-06-26 18:59:00,
2012-06-26 13:04:00,84.4,37.7,29.54,WSW,243,5.0,11.0,19,0.00,,---,0.00,VWS V14.01,2012-06-26 19:04:00,
2012-06-26 13:09:00,83.8,37.2,29.53,WNW,290,3.0,13.0,19,0.00,,---,0.00,VWS V14.01,2012-06-26 19:09:00,
2012-06-26 13:14:00,83.7,37.1,29.53,West,269,10.0,11.0,19,0.00,,---,0.00,VWS V14.01,2012-06-26 19:14:00,
2012-06-26 13:19:00,83.9,37.3,29.53,WSW,239,9.0,15.0,19,0.00,,---,0.00,VWS V14.01,2012-06-26 19:19:00,
2012-06-26 13:24:00,84.3,38.9,29.53,SW,236,8.0,15.0,20,0.00,,---,0.00,VWS V14.01,2012-06-26 19:24:00,
2012-06-26 13:29:00,84.7,36.5,29.53,WSW,258,12.0,15.0,18,0.00,,---,0.00,VWS V14.01,2012-06-26 19:29:00,
2012-06-26 13:34:00,84.6,39.2,29.53,West,264,6.0,12.0,20,0.00,,---,0.00,VWS V14.01,2012-06-26 19:34:00,
2012-06-26 13:39:00,84.7,37.9,29.52,SSW,211,0.0,5.0,19,0.00,,---,0.00,VWS V14.01,2012-06-26 19:39:00,
2012-06-26 13:44:00,85.2,38.3,29.52,WSW,254,11.0,16.0,19,0.00,,---,0.00,VWS V14.01,2012-06-26 19:44:00,
2012-06-26 13:49:00,85.2,37.0,29.51,WSW,248,9.0,19.0,18,0.00,,---,0.00,VWS V14.01,2012-06-26 19:49:00,
2012-06-26 13:54:00,84.8,38.0,29.52,WSW,257,4.0,18.0,19,0.00,,---,0.00,VWS V14.01,2012-06-26 19:54:00,
2012-06-26 13:59:00,85.1,38.2,29.51,WSW,257,8.0,13.0,19,0.00,,---,0.00,VWS V14.01,2012-06-26 19:59:00,
2012-06-26 14:04:00,85.7,38.7,29.47,West,261,14.0,14.0,19,0.00,,---,0.00,VWS V14.01,2012-06-26 20:04:00,
2012-06-26 14:09:00,85.8,40.1,29.46,SW,218,2.0,9.0,20,0.00,,---,0.00,VWS V14.01,2012-06-26 20:09:00,
2012-06-26 14:14:00,86.2,37.8,29.47,SSW,205,5.0,12.0,18,0.00,,---,0.00,VWS V14.01,2012-06-26 20:14:00,
2012-06-26 14:19:00,86.2,37.8,29.46,SW,217,14.0,22.0,18,0.00,,---,0.00,VWS V14.01,2012-06-26 20:19:00,
2012-06-26 14:24:00,85.7,37.4,29.46,West,267,8.0,11.0,18,0.00,,---,0.00,VWS V14.01,2012-06-26 20:24:00,
2012-06-26 14:29:00,85.8,37.4,29.45,WNW,295,6.0,10.0,18,0.00,,---,0.00,VWS V14.01,2012-06-26 20:29:00,
2012-06-26 14:34:00,86.1,37.7,29.46,SSW,194,16.0,16.0,18,0.00,,---,0.00,VWS V14.01,2012-06-26 20:34:00,
2012-06-26 14:39:00,86.1,37.7,29.45,SSW,211,5.0,11.0,18,0.00,,---,0.00,VWS V14.01,2012-06-26 20:39:00,
2012-06-26 14:44:00,86.6,39.5,29.45,West,264,4.0,8.0,19,0.00,,---,0.00,VWS V14.01,2012-06-26 20:44:00,
2012-06-26 14:49:00,87.1,39.9,29.43,WSW,244,2.0,13.0,19,0.00,,---,0.00,VWS V14.01,2012-06-26 20:49:00,
2012-06-26 14:55:00,87.0,39.8,29.43,South,174,1.0,10.0,19,0.00,,---,0.00,VWS V14.01,2012-06-26 20:55:00,
2012-06-26 15:00:00,87.1,38.5,29.43,WSW,249,7.0,20.0,18,0.00,,---,0.00,VWS V14.01,2012-06-26 21:00:00,
2012-06-26 15:04:00,86.7,39.6,29.44,SW,229,4.0,11.0,19,0.00,,---,0.00,VWS V14.01,2012-06-26 21:04:00,
2012-06-26 15:10:00,87.0,41.1,29.43,SSW,198,6.0,21.0,20,0.00,,---,0.00,VWS V14.01,2012-06-26 21:10:00,
2012-06-26 15:15:00,87.1,39.9,29.44,SSW,194,8.0,11.0,19,0.00,,---,0.00,VWS V14.01,2012-06-26 21:15:00,
2012-06-26 15:20:00,87.6,38.9,29.42,WSW,254,6.0,8.0,18,0.00,,---,0.00,VWS V14.01,2012-06-26 21:20:00,
2012-06-26 15:25:00,86.8,38.3,29.44,SSW,201,7.0,8.0,18,0.00,,---,0.00,VWS V14.01,2012-06-26 21:25:00,
2012-06-26 15:30:00,85.6,38.7,29.44,SSW,192,2.0,9.0,19,0.00,,---,0.00,VWS V14.01,2012-06-26 21:30:00,
2012-06-26 15:35:00,86.5,39.4,29.43,SSW,207,3.0,12.0,19,0.00,,---,0.00,VWS V14.01,2012-06-26 21:35:00,
2012-06-26 15:40:00,86.5,39.4,29.43,WSW,245,8.0,12.0,19,0.00,,---,0.00,VWS V14.01,2012-06-26 21:40:00,
2012-06-26 15:45:00,86.6,39.5,29.44,WSW,250,7.0,11.0,19,0.00,,---,0.00,VWS V14.01,2012-06-26 21:45:00,
2012-06-26 15:50:00,87.1,41.2,29.43,WSW,239,12.0,15.0,20,0.00,,---,0.00,VWS V14.01,2012-06-26 21:50:00,
2012-06-26 15:55:00,86.4,39.3,29.43,SSW,210,12.0,20.0,19,0.00,,---,0.00,VWS V14.01,2012-06-26 21:55:00,
2012-06-26 16:00:00,86.2,39.2,29.43,South,189,9.0,10.0,19,0.00,,---,0.00,VWS V14.01,2012-06-26 22:00:00,
2012-06-26 16:05:00,85.5,38.6,29.46,SSW,200,6.0,21.0,19,0.00,,---,0.00,VWS V14.01,2012-06-26 22:05:00,
2012-06-26 16:10:00,85.7,38.7,29.46,SW,234,8.0,16.0,19,0.00,,---,0.00,VWS V14.01,2012-06-26 22:10:00,
2012-06-26 16:15:00,86.5,39.4,29.45,SW,221,1.0,9.0,19,0.00,,---,0.00,VWS V14.01,2012-06-26 22:15:00,
2012-06-26 16:20:00,86.4,39.3,29.46,SW,236,4.0,13.0,19,0.00,,---,0.00,VWS V14.01,2012-06-26 22:20:00,
2012-06-26 16:25:00,85.7,40.1,29.46,SW,218,2.0,11.0,20,0.00,,---,0.00,VWS V14.01,2012-06-26 22:25:00,
2012-06-26 16:30:00,85.4,41.1,29.45,SSW,205,2.0,11.0,21,0.00,,---,0.00,VWS V14.01,2012-06-26 22:30:00,
2012-06-26 16:35:00,86.3,40.5,29.45,WSW,244,7.0,14.0,20,0.00,,---,0.00,VWS V14.01,2012-06-26 22:35:00,
2012-06-26 16:40:00,86.5,39.4,29.44,SW,236,8.0,20.0,19,0.00,,---,0.00,VWS V14.01,2012-06-26 22:40:00,
2012-06-26 16:45:00,86.2,40.5,29.46,SW,215,9.0,14.0,20,0.00,,---,0.00,VWS V14.01,2012-06-26 22:45:00,
2012-06-26 16:50:00,85.2,40.9,29.45,WSW,246,9.0,14.0,21,0.00,,---,0.00,VWS V14.01,2012-06-26 22:50:00,
2012-06-26 16:55:00,83.6,40.8,29.47,SW,214,11.0,16.0,22,0.00,,---,0.00,VWS V14.01,2012-06-26 22:55:00,
2012-06-26 17:00:00,82.8,41.3,29.47,SW,215,9.0,20.0,23,0.00,,---,0.00,VWS V14.01,2012-06-26 23:00:00,
2012-06-26 17:05:00,83.1,41.5,29.45,South,188,10.0,16.0,23,0.00,,---,0.00,VWS V14.01,2012-06-26 23:05:00,
2012-06-26 17:10:00,84.1,42.3,29.44,SW,218,1.0,16.0,23,0.00,,---,0.00,VWS V14.01,2012-06-26 23:10:00,
2012-06-26 17:15:00,84.3,40.2,29.43,SSW,209,7.0,11.0,21,0.00,,---,0.00,VWS V14.01,2012-06-26 23:15:00,
2012-06-26 17:20:00,83.9,41.0,29.43,SW,221,0.0,7.0,22,0.00,,---,0.00,VWS V14.01,2012-06-26 23:20:00,
2012-06-26 17:25:00,84.0,41.1,29.43,SSW,203,1.0,11.0,22,0.00,,---,0.00,VWS V14.01,2012-06-26 23:25:00,
2012-06-26 17:30:00,84.4,41.4,29.43,SSW,203,6.0,6.0,22,0.00,,---,0.00,VWS V14.01,2012-06-26 23:30:00,
2012-06-26 17:35:00,85.6,41.2,29.42,SSW,200,1.0,14.0,21,0.00,,---,0.00,VWS V14.01,2012-06-26 23:35:00,
2012-06-26 17:40:00,85.4,44.5,29.42,WNW,296,13.0,13.0,24,0.00,,---,0.00,VWS V14.01,2012-06-26 23:40:00,
2012-06-26 17:45:00,82.6,42.2,29.45,WSW,257,7.0,13.0,24,0.00,,---,0.00,VWS V14.01,2012-06-26 23:45:00,
2012-06-26 17:50:00,82.5,42.1,29.45,WNW,299,5.0,11.0,24,0.00,,---,0.00,VWS V14.01,2012-06-26 23:50:00,
2012-06-26 17:55:00,82.7,42.3,29.46,West,277,7.0,10.0,24,0.00,,---,0.00,VWS V14.01,2012-06-26 23:55:00,
2012-06-26 18:00:00,82.3,44.0,29.45,WNW,286,1.0,9.0,26,0.00,,---,0.00,VWS V14.01,2012-06-27 00:00:00,
2012-06-26 18:05:00,82.2,41.8,29.43,NW,326,9.0,11.0,24,0.00,,---,0.00,VWS V14.01,2012-06-27 00:05:00,
2012-06-26 18:10:00,82.8,42.4,29.43,NNW,340,5.0,9.0,24,0.00,,---,0.00,VWS V14.01,2012-06-27 00:10:00,
2012-06-26 18:15:00,83.1,41.5,29.43,NNW,344,7.0,12.0,23,0.00,,---,0.00,VWS V14.01,2012-06-27 00:15:00,
2012-06-26 18:20:00,82.9,41.3,29.43,NNW,327,6.0,10.0,23,0.00,,---,0.00,VWS V14.01,2012-06-27 00:20:00,
2012-06-26 18:25:00,83.1,40.4,29.43,WNW,300,4.0,9.0,22,0.00,,---,0.00,VWS V14.01,2012-06-27 00:25:00,
2012-06-26 18:30:00,84.0,41.1,29.41,WNW,300,4.0,5.0,22,0.00,,---,0.00,VWS V14.01,2012-06-27 00:30:00,
2012-06-26 18:35:00,84.9,41.9,29.42,WNW,300,0.0,4.0,22,0.00,,---,0.00,VWS V14.01,2012-06-27 00:35:00,
2012-06-26 18:40:00,85.4,43.4,29.41,WNW,300,2.0,5.0,23,0.00,,---,0.00,VWS V14.01,2012-06-27 00:40:00,
2012-06-26 18:45:00,85.0,41.9,29.42,West,277,7.0,7.0,22,0.00,,---,0.00,VWS V14.01,2012-06-27 00:45:00,
2012-06-26 18:50:00,84.6,42.8,29.42,West,275,2.0,5.0,23,0.00,,---,0.00,VWS V14.01,2012-06-27 00:50:00,
2012-06-26 18:55:00,84.6,44.9,29.41,West,275,4.0,5.0,25,0.00,,---,0.00,VWS V14.01,2012-06-27 00:55:00,
2012-06-26 19:00:00,84.7,44.0,29.42,West,275,2.0,6.0,24,0.00,,---,0.00,VWS V14.01,2012-06-27 01:00:00,
2012-06-26 19:05:00,84.2,44.6,29.37,West,275,3.0,7.0,25,0.00,,---,0.00,VWS V14.01,2012-06-27 01:05:00,
2012-06-26 19:10:00,83.9,43.3,29.37,West,275,0.0,6.0,24,0.00,,---,0.00,VWS V14.01,2012-06-27 01:10:00,
2012-06-26 19:15:00,83.4,42.9,29.38,West,275,4.0,9.0,24,0.00,,---,0.00,VWS V14.01,2012-06-27 01:15:00,
2012-06-26 19:21:00,83.0,44.6,29.38,West,275,2.0,5.0,26,0.00,,---,0.00,VWS V14.01,2012-06-27 01:21:00,
2012-06-26 19:26:00,83.0,43.6,29.38,West,275,2.0,5.0,25,0.00,,---,0.00,VWS V14.01,2012-06-27 01:26:00,
2012-06-26 19:31:00,82.9,41.3,29.38,West,276,0.0,7.0,23,0.00,,---,0.00,VWS V14.01,2012-06-27 01:31:00,
2012-06-26 19:36:00,83.0,42.5,29.38,West,276,0.0,0.0,24,0.00,,---,0.00,VWS V14.01,2012-06-27 01:36:00,
2012-06-26 19:41:00,83.1,42.6,29.38,West,275,0.0,1.0,24,0.00,,---,0.00,VWS V14.01,2012-06-27 01:41:00,
2012-06-26 19:46:00,82.7,42.3,29.38,West,275,0.0,0.0,24,0.00,,---,0.00,VWS V14.01,2012-06-27 01:46:00,
2012-06-26 19:51:00,82.4,42.0,29.40,West,275,0.0,0.0,24,0.00,,---,0.00,VWS V14.01,2012-06-27 01:51:00,
2012-06-26 19:56:00,82.0,41.7,29.40,West,275,0.0,0.0,24,0.00,,---,0.00,VWS V14.01,2012-06-27 01:56:00,
2012-06-26 20:01:00,81.4,42.2,29.40,West,275,0.0,0.0,25,0.00,,---,0.00,VWS V14.01,2012-06-27 02:01:00,
2012-06-26 20:06:00,80.8,41.7,29.36,West,275,0.0,0.0,25,0.00,,---,0.00,VWS V14.01,2012-06-27 02:06:00,
2012-06-26 20:11:00,79.7,41.8,29.38,West,275,0.0,1.0,26,0.00,,---,0.00,VWS V14.01,2012-06-27 02:11:00,
2012-06-26 20:16:00,78.7,41.0,29.37,West,275,0.0,1.0,26,0.00,,---,0.00,VWS V14.01,2012-06-27 02:16:00,
2012-06-26 20:21:00,78.0,41.3,29.39,West,275,0.0,0.0,27,0.00,,---,0.00,VWS V14.01,2012-06-27 02:21:00,
2012-06-26 20:26:00,77.5,40.9,29.39,West,275,4.0,4.0,27,0.00,,---,0.00,VWS V14.01,2012-06-27 02:26:00,
2012-06-26 20:31:00,77.0,42.3,29.40,West,275,1.0,5.0,29,0.00,,---,0.00,VWS V14.01,2012-06-27 02:31:00,
2012-06-26 20:36:00,75.4,42.7,29.41,West,275,0.0,6.0,31,0.00,,---,0.00,VWS V14.01,2012-06-27 02:36:00,
2012-06-26 20:41:00,74.5,41.9,29.42,West,275,0.0,1.0,31,0.00,,---,0.00,VWS V14.01,2012-06-27 02:41:00,
2012-06-26 20:47:00,74.4,41.0,29.43,West,263,0.0,7.0,30,0.00,,---,0.00,VWS V14.01,2012-06-27 02:47:00,
2012-06-26 20:52:00,75.0,41.5,29.41,South,180,0.0,4.0,30,0.00,,---,0.00,VWS V14.01,2012-06-27 02:52:00,
2012-06-26 20:57:00,75.4,41.0,29.42,South,182,0.0,6.0,29,0.00,,---,0.00,VWS V14.01,2012-06-27 02:57:00,
2012-06-26 21:02:00,75.5,41.0,29.42,South,182,0.0,5.0,29,0.00,,---,0.00,VWS V14.01,2012-06-27 03:02:00,
2012-06-26 21:07:00,75.4,41.8,29.41,South,185,1.0,8.0,30,0.00,,---,0.00,VWS V14.01,2012-06-27 03:07:00,
2012-06-26 21:12:00,74.7,41.2,29.42,South,185,0.0,5.0,30,0.00,,---,0.00,VWS V14.01,2012-06-27 03:12:00,
2012-06-26 21:17:00,74.4,41.0,29.43,South,185,0.0,1.0,30,0.00,,---,0.00,VWS V14.01,2012-06-27 03:17:00,
2012-06-26 21:22:00,74.2,39.9,29.43,South,185,0.0,1.0,29,0.00,,---,0.00,VWS V14.01,2012-06-27 03:22:00,
2012-06-26 21:27:00,74.4,40.1,29.44,South,185,0.0,6.0,29,0.00,,---,0.00,VWS V14.01,2012-06-27 03:27:00,
2012-06-26 21:32:00,74.5,40.2,29.44,South,185,1.0,1.0,29,0.00,,---,0.00,VWS V14.01,2012-06-27 03:32:00,
2012-06-26 21:37:00,74.5,40.2,29.44,South,185,1.0,5.0,29,0.00,,---,0.00,VWS V14.01,2012-06-27 03:37:00,
2012-06-26 21:42:00,74.3,40.0,29.44,South,184,0.0,5.0,29,0.00,,---,0.00,VWS V14.01,2012-06-27 03:42:00,
2012-06-26 21:47:00,74.0,40.6,29.43,South,184,0.0,2.0,30,0.00,,---,0.00,VWS V14.01,2012-06-27 03:47:00,
2012-06-26 21:52:00,73.8,40.5,29.44,South,184,1.0,5.0,30,0.00,,---,0.00,VWS V14.01,2012-06-27 03:52:00,
2012-06-26 21:57:00,73.7,40.4,29.44,South,184,0.0,2.0,30,0.00,,---,0.00,VWS V14.01,2012-06-27 03:57:00,
2012-06-26 22:00:00,73.6,40.3,29.44,South,185,0.0,2.0,30,0.00,,---,0.00,VWS V14.01,2012-06-27 04:00:00,
2012-06-26 22:05:00,73.7,40.4,29.43,South,185,1.0,3.0,30,0.00,,---,0.00,VWS V14.01,2012-06-27 04:05:00,
2012-06-26 22:10:00,73.8,39.6,29.43,South,185,0.0,5.0,29,0.00,,---,0.00,VWS V14.01,2012-06-27 04:10:00,
2012-06-26 22:15:00,73.9,39.7,29.43,South,185,1.0,1.0,29,0.00,,---,0.00,VWS V14.01,2012-06-27 04:15:00,
2012-06-26 22:20:00,73.9,39.7,29.43,South,184,0.0,1.0,29,0.00,,---,0.00,VWS V14.01,2012-06-27 04:20:00,
2012-06-26 22:25:00,74.0,39.8,29.42,South,184,0.0,1.0,29,0.00,,---,0.00,VWS V14.01,2012-06-27 04:25:00,
2012-06-26 22:30:00,73.8,39.6,29.42,South,185,0.0,1.0,29,0.00,,---,0.00,VWS V14.01,2012-06-27 04:30:00,
2012-06-26 22:35:00,73.3,39.2,29.44,South,185,0.0,0.0,29,0.00,,---,0.00,VWS V14.01,2012-06-27 04:35:00,
2012-06-26 22:40:00,72.7,39.5,29.44,South,185,0.0,1.0,30,0.00,,---,0.00,VWS V14.01,2012-06-27 04:40:00,
2012-06-26 22:45:00,72.2,39.1,29.44,South,185,0.0,1.0,30,0.00,,---,0.00,VWS V14.01,2012-06-27 04:45:00,
2012-06-26 22:50:00,71.8,38.7,29.45,South,184,0.0,0.0,30,0.00,,---,0.00,VWS V14.01,2012-06-27 04:50:00,
2012-06-26 22:55:00,71.5,39.3,29.45,South,184,0.0,0.0,31,0.00,,---,0.00,VWS V14.01,2012-06-27 04:55:00,
2012-06-26 23:00:00,71.3,39.1,29.47,South,184,0.0,0.0,31,0.00,,---,0.00,VWS V14.01,2012-06-27 05:00:00,
2012-06-26 23:05:00,71.1,39.0,29.45,South,185,0.0,1.0,31,0.00,,---,0.00,VWS V14.01,2012-06-27 05:05:00,
2012-06-26 23:10:00,70.5,39.2,29.45,South,185,0.0,4.0,32,0.00,,---,0.00,VWS V14.01,2012-06-27 05:10:00,
2012-06-26 23:15:00,69.9,41.0,29.46,SSW,203,3.0,11.0,35,0.00,,---,0.00,VWS V14.01,2012-06-27 05:15:00,
2012-06-26 23:20:00,69.4,40.6,29.47,SSW,203,0.0,9.0,35,0.00,,---,0.00,VWS V14.01,2012-06-27 05:20:00,
2012-06-26 23:25:00,69.2,39.7,29.47,SSW,203,0.0,0.0,34,0.00,,---,0.00,VWS V14.01,2012-06-27 05:25:00,
2012-06-26 23:30:00,69.2,39.7,29.47,SSW,203,0.0,2.0,34,0.00,,---,0.00,VWS V14.01,2012-06-27 05:30:00,
2012-06-26 23:35:00,69.7,39.3,29.47,SSW,203,0.0,6.0,33,0.00,,---,0.00,VWS V14.01,2012-06-27 05:35:00,
2012-06-26 23:40:00,69.9,38.7,29.47,SSW,204,0.0,1.0,32,0.00,,---,0.00,VWS V14.01,2012-06-27 05:40:00,
2012-06-26 23:45:00,70.0,39.6,29.47,SSW,204,0.0,1.0,33,0.00,,---,0.00,VWS V14.01,2012-06-27 05:45:00,
2012-06-26 23:51:00,69.9,39.5,29.48,SSW,204,0.0,2.0,33,0.00,,---,0.00,VWS V14.01,2012-06-27 05:51:00,
2012-06-26 23:55:00,69.8,39.4,29.48,SSW,204,0.0,1.0,33,0.00,,---,0.00,VWS V14.01,2012-06-27 05:55:00,